Home > Weather > Grande Prairie > Past weeks

Flag for Canada Past Weather in Grande Prairie, Alberta, Canada — Yesterday and Last 2 Weeks

Now
59 °F

Passing clouds.


Feels Like: 56 °F
Forecast: 51 / 68 °F
Wind: 16 mph from West

Location: Grande Prairie

Current Time: Jul 23, 2016 at 5:11:33 AM

Latest Report: Jul 23, 2016 at 4:00 AM


Visibility: 25 mi

Pressure: 29.90 "Hg (27.66 "Hg at 657m altitude)

Humidity: 63%

Dew Point: 46 °F

Location of Grande PrairieLocation

Past Weather in Grande Prairie — Graph

°F

Grande Prairie Temperature Yesterday

Maximum temperature yesterday: 73 °F (at 1:00 PM)
Minimum temperature yesterday: 50 °F (at 5:00 AM)
Average temperature yesterday: 62 °F

High & Low Weather Summary for the Past Weeks

 TemperatureHumidityPressure
High79 °F (Jul 19, 3:00 PM)100% (Jul 9, 5:00 AM)30.27 "Hg (Jul 9, 5:00 AM)
Low48 °F (Jul 15, 6:00 AM)38% (Jul 22, 1:00 PM)29.78 "Hg (Jul 19, 6:00 PM)
Average62 °F75%29.97 "Hg
* Reported Jul 8 4:00 AM — Jul 23 4:00 AM, Grande Prairie, Weather by CustomWeather, © 2016

Note: Actual official high and low records may vary slightly from our data, if they occured in-between our weather recording intervals... More about our weather records

Advertising

Grande Prairie Weather History for the Previous 24 Hours

Scroll right to see more
 ConditionsComfort  
Time TempWeatherWind HumidityBarometerVisibility
4:00 AM
Sat, Jul 23
59 °FPassing clouds.16 mph63%29.90 "Hg25 mi
3:00 AM59 °FPassing clouds.13 mph63%29.90 "Hg25 mi
2:00 AM59 °FPartly cloudy.14 mph59%29.90 "Hg25 mi
1:00 AM57 °FPassing clouds.13 mph59%29.91 "Hg25 mi
12:00 AM61 °FPassing clouds.15 mph52%29.89 "Hg25 mi
11:00 PM
Fri, Jul 22
63 °FScattered clouds.14 mph52%29.89 "Hg25 mi
10:00 PM64 °FPartly sunny.16 mph49%29.88 "Hg25 mi
9:00 PM66 °FPartly sunny.17 mph43%29.88 "Hg25 mi
8:00 PM68 °FPartly sunny.15 mph46%29.86 "Hg25 mi
7:00 PM70 °FBroken clouds.24 mph43%29.86 "Hg25 mi
6:00 PM70 °FBroken clouds.21 mph43%29.88 "Hg25 mi
5:00 PM72 °FPartly sunny.20 mph41%29.88 "Hg25 mi
4:00 PM72 °FPartly sunny.32 mph38%29.88 "Hg25 mi
3:00 PM72 °FPartly sunny.26 mph38%29.88 "Hg25 mi
2:00 PM73 °FBroken clouds.24 mph38%29.89 "Hg25 mi
1:00 PM73 °FBroken clouds.23 mph38%29.88 "Hg25 mi
12:00 PM72 °FBroken clouds.25 mph41%29.88 "Hg25 mi
11:00 AM68 °FScattered clouds.10 mph60%29.88 "Hg25 mi
10:00 AM64 °FScattered clouds.8 mph68%29.89 "Hg25 mi
9:00 AM59 °FScattered clouds.6 mph82%29.91 "Hg25 mi
8:00 AM57 °FScattered clouds.7 mph88%29.92 "Hg25 mi
7:00 AM50 °FScattered clouds.5 mph100%29.94 "Hg25 mi
6:00 AM50 °FPassing clouds.5 mph100%29.95 "Hg25 mi
5:00 AM50 °FFog.5 mph94%29.96 "Hg25 mi
Weather by CustomWeather, © 2016

See weather overviewHow to use our weather pages